Flag for Australia Weather past 2 weeks in Campbelltown, New South Wales, Australia

Now
46 °F

Cool.


Feels Like: 46 °F
Forecast: 49 / 66 °F
Wind: No wind

Location: Camden Airport

Current Time: Aug 24, 2014 at 5:54:17 AM

Latest Report: Aug 24, 2014 at 5:00 AM


Visibility: N/A

Pressure: 30.39 "Hg

Humidity: 99%

Dew point: 46 °F

Location of CampbelltownLocation

Historic Weather in Campbelltown — Graph

°F

Campbelltown temperature yesterday

Maximum temperature yesterday: 64 °F (at 12:00 PM)
Minimum temperature yesterday: 45 °F (at 3:00 AM)
Average temperature yesterday: 53 °F

Past Weeks' High & Low Weather Summary

 TemperatureHumidityPressure
High71 °F (Aug 10, 2:00 PM)100% (Aug 9, 8:00 AM)30.58 "Hg (Aug 9, 8:00 AM)
Low32 °F (Aug 14, 6:00 AM)24% (Aug 10, 3:00 PM)29.56 "Hg (Aug 18, 3:00 AM)
Average52 °F75%30.25 "Hg
* Reported Aug 9 3:00 AM — Aug 24 3:00 AM, Campbelltown, Weather by CustomWeather, © 2014

Note: Actual official high and low records may vary slightly from our data, if they occured in-between our weather recording intervals... More about our weather records

Advertising

Campbelltown weather history for previous 24 hours

 ConditionsComfort  
Time TempWeatherWind HumidityBarometerVisibility
3:00 AM
Aug 24
47 °FCool.3 mph99%30.38 "Hg0 mi
2:00 AM49 °FCool.No wind99%30.40 "HgN/A
12:00 AM52 °FOvercast.No wind99%30.42 "Hg1 mi
11:00 PM
Aug 23
53 °FCool.No wind99%30.43 "HgN/A
9:00 PM53 °FFog.No wind98%30.44 "Hg0 mi
8:00 PM55 °FCool.3 mph99%30.44 "HgN/A
6:00 PM56 °FOvercast.No wind96%30.43 "HgN/A
5:00 PM56 °FCool.3 mph96%30.40 "HgN/A
3:00 PM56 °FLots of rain. Overcast.3 mph95%30.39 "HgN/A
2:00 PM59 °FCool.6 mph69%30.37 "HgN/A
12:00 PM64 °FDrizzle. Overcast.6 mph56%30.41 "HgN/A
11:00 AM64 °FMild.5 mph56%30.44 "HgN/A
9:00 AM58 °FCool.2 mph80%30.46 "HgN/A
8:00 AM51 °FCool.No wind99%30.46 "HgN/A
6:00 AM45 °FOvercast.No wind100%30.42 "Hg1 mi
5:00 AM46 °FCool.No wind99%30.41 "HgN/A
Weather by CustomWeather, © 2014

See weather overviewHow to use our weather pages